Wind_Speed
6 5 6 8 8 7 5 5 6 5 3 2 2 1 2 3 5 5 6 6 4 4 4 3 3 3 3 3 3 4 4 6 7 7 7 7 7 6 7 7 8 10 11 10 11 13 14 16 17 18 18 18 25 31 29 27 27 27 27 26 26 25 26 28 28 28 29 29 29 29 29 30 29 30 31 32 32 31 30 28 28 27 26 26 26
7 7 8 9 8 7 6 5 6 7 4 3 3 1 2 3 4 6 7 8 7 5 3 2 2 3 2 2 2 4 5 6 7 7 6 6 6 6 6 6 8 10 9 8 11 14 16 16 18 19 18 21 30 32 28 26 26 27 27 26 25 25 26 28 29 29 29 29 29 28 29 29 29 30 31 32 32 31 30 28 27 26 26 25 25
5 7 8 6 6 6 6 5 6 8 6 3 4 3 2 2 4 7 5 5 7 4 4 2 1 3 3 2 2 5 6 6 7 6 5 5 5 5 5 6 8 9 8 7 10 15 17 17 18 19 18 23 32 31 28 26 26 27 27 25 25 25 25 27 30 29 29 29 29 28 28 29 29 30 31 31 31 30 29 28 26 25 25 24 24
6 8 6 3 5 6 4 5 7 7 7 5 4 4 3 2 5 8 6 6 4 2 4 2 1 4 4 3 2 5 6 7 7 7 5 5 4 4 5 7 8 8 8 6 9 15 17 18 18 19 18 25 32 30 28 26 26 27 26 25 24 25 25 26 29 30 29 29 29 28 29 28 29 30 30 30 30 29 28 27 26 25 24 23 23
7 8 7 5 4 5 4 4 6 7 8 7 5 3 2 2 4 7 6 7 6 2 2 2 1 4 5 3 2 3 5 7 7 7 5 5 5 4 6 7 8 8 8 6 10 15 16 18 18 17 18 26 32 29 28 27 27 27 25 24 24 25 25 25 28 30 30 28 28 28 29 29 29 29 30 29 29 28 27 27 25 24 23 22 22
6 7 7 5 3 6 8 5 6 7 9 10 8 4 2 2 2 5 5 7 8 6 4 4 1 2 5 4 3 1 2 5 6 7 6 6 6 6 7 6 7 8 9 8 11 15 15 16 16 16 18 26 31 29 28 27 27 27 25 24 23 24 25 25 28 30 30 28 26 28 29 28 28 29 29 28 28 27 27 26 25 23 22 21 21
6 7 7 6 5 8 11 8 7 8 9 11 10 6 3 2 2 3 4 6 7 8 7 6 3 3 5 4 4 1 1 2 4 6 7 7 6 6 6 5 5 6 8 10 13 15 13 13 14 16 18 26 31 29 28 27 27 26 25 23 23 24 24 25 27 29 30 28 26 27 28 28 28 28 28 28 27 26 26 25 23 23 22 21 20
7 8 7 6 6 8 10 8 6 7 8 10 9 7 5 2 1 2 3 5 7 7 8 8 6 2 5 4 4 1 2 1 3 6 8 7 5 5 5 4 4 5 8 11 14 14 13 12 13 15 19 27 31 30 28 27 27 26 25 23 22 23 24 24 26 29 29 28 26 27 27 27 27 27 27 26 26 25 25 24 22 21 21 20 19
8 8 8 8 7 8 9 8 8 8 7 8 7 5 5 2 1 1 3 5 7 6 5 5 5 0 3 4 4 2 3 2 2 4 6 6 5 4 4 4 5 6 8 11 13 12 12 12 13 15 20 28 31 29 28 27 27 26 25 23 22 23 24 25 25 27 28 28 27 26 27 27 26 26 25 25 24 24 23 22 22 21 20 19 18
8 8 8 7 7 8 9 10 10 9 7 6 4 3 3 2 3 2 2 3 4 2 0 0 1 1 1 5 4 3 3 2 2 2 4 5 4 3 3 4 5 6 9 12 14 12 12 12 13 15 20 29 31 29 28 27 26 26 25 23 22 23 24 25 26 27 27 27 26 26 25 26 25 24 24 23 23 22 22 21 21 20 19 18 18
8 8 8 8 7 8 10 12 12 10 7 5 3 2 2 3 5 4 3 1 1 1 2 3 2 1 2 4 4 3 3 2 4 4 2 2 2 3 3 4 5 7 10 13 14 13 13 12 13 15 21 30 32 29 28 27 26 26 25 23 22 23 24 25 26 27 27 26 26 25 24 24 24 23 22 21 21 21 20 20 19 18 18 17 17
7 8 9 10 10 9 11 12 11 11 9 6 5 2 2 3 4 4 4 4 2 1 2 4 4 3 3 1 3 3 2 2 4 5 4 3 0 2 3 4 6 8 10 13 15 14 13 12 13 16 23 30 32 29 27 27 27 27 25 23 22 22 24 25 26 27 27 26 25 25 24 23 23 22 21 20 20 19 18 18 18 17 17 16 15
7 8 9 11 11 10 12 11 11 10 9 11 8 4 3 2 5 5 5 5 4 3 3 4 6 4 5 4 2 3 2 3 5 5 6 6 4 2 3 5 6 8 11 13 14 14 13 13 13 17 24 30 31 29 28 27 27 27 26 24 22 22 23 24 26 27 27 26 24 24 24 23 22 21 19 19 19 18 17 17 16 16 15 14 14
7 7 8 10 11 10 12 12 11 8 8 11 9 7 5 3 5 5 4 5 5 5 4 4 6 5 4 6 5 3 2 2 5 6 7 7 5 3 2 5 7 9 11 13 14 14 13 13 14 17 24 30 30 29 28 27 26 26 26 25 23 22 21 23 24 26 27 26 24 24 23 22 21 20 19 18 18 17 17 16 15 14 14 13 13
9 9 8 9 10 11 11 10 9 11 11 10 7 8 6 3 4 5 4 4 5 5 5 5 6 6 5 6 8 6 4 3 5 7 7 7 6 4 3 5 8 10 11 13 14 14 14 14 14 18 24 29 30 29 29 28 26 26 25 25 24 23 21 22 23 24 26 25 24 23 23 22 21 19 18 17 17 17 16 15 15 13 13 12 11
11 11 9 10 10 12 12 7 4 6 8 7 5 7 5 3 5 6 5 5 5 5 5 6 6 6 5 5 8 7 5 4 4 5 5 5 6 5 4 6 9 11 11 12 14 14 14 15 16 19 24 29 30 29 29 28 26 25 25 24 24 23 21 21 22 22 24 24 24 23 23 22 21 20 18 17 17 16 16 15 14 13 12 11 10
12 13 13 12 10 11 13 9 5 3 4 3 3 4 4 6 7 8 8 6 4 5 5 5 6 6 5 4 5 7 3 4 5 5 4 3 3 3 3 6 9 11 11 12 13 14 14 15 17 20 25 29 30 28 28 28 27 26 25 24 23 23 21 20 20 21 22 23 23 23 23 23 22 21 19 18 17 17 15 15 14 12 11 11 10
12 14 15 15 13 13 14 13 11 8 6 5 3 4 7 9 8 8 9 8 5 4 4 4 5 4 4 3 4 5 2 5 5 4 4 4 1 1 1 5 9 11 11 12 12 13 14 16 18 21 25 29 29 27 27 27 27 26 25 24 23 22 22 20 20 20 20 21 22 23 23 23 22 21 20 18 18 17 16 15 13 12 11 10 10
12 15 17 16 16 16 16 16 14 12 10 8 7 7 8 9 8 8 9 9 6 3 2 3 3 2 2 1 2 2 4 5 5 3 3 5 4 2 3 2 8 10 11 12 12 14 14 15 18 21 25 28 29 27 26 26 26 25 24 24 23 22 22 21 20 19 20 21 22 22 23 22 22 21 20 19 18 18 16 15 13 12 12 11 10
12 13 16 18 18 18 17 17 16 14 12 9 8 8 7 7 7 6 8 10 6 1 0 0 1 1 2 2 1 2 5 4 4 2 2 6 5 4 3 3 6 9 10 12 13 14 15 15 18 21 24 28 29 28 26 25 25 24 24 23 23 22 22 22 20 19 19 20 20 21 21 21 21 21 20 19 19 18 17 15 14 12 12 11 10
13 12 14 16 17 18 18 17 17 15 12 9 7 6 6 6 6 7 8 9 7 3 1 2 2 2 3 3 3 3 5 3 2 2 3 5 5 4 4 3 5 8 8 10 13 15 15 16 17 20 24 27 29 29 27 26 25 24 23 23 23 22 21 21 20 19 19 19 20 20 20 20 20 21 20 19 19 18 17 16 14 13 12 11 10
14 14 14 14 14 15 16 17 16 15 12 8 6 6 5 4 4 7 9 8 7 5 2 3 3 4 5 4 5 5 3 3 2 3 3 4 5 5 5 4 4 6 7 9 12 15 16 16 17 19 23 26 28 29 28 27 25 24 23 23 23 22 21 21 21 19 19 19 19 19 19 19 19 19 19 19 18 17 17 16 15 13 12 11 10
15 15 15 13 12 12 13 15 16 15 12 9 6 6 6 5 4 6 9 8 7 6 3 4 4 4 5 7 8 6 6 5 4 4 4 6 7 4 3 4 3 4 7 7 9 14 16 17 18 19 23 26 28 29 29 28 26 25 23 22 22 22 21 21 21 20 19 18 18 17 17 17 18 18 18 18 17 17 16 15 15 14 13 12 10
17 17 17 14 13 11 11 12 14 15 13 11 8 7 7 7 6 8 9 10 9 8 5 4 6 6 6 8 9 8 8 8 6 5 6 7 7 3 3 5 4 3 4 6 7 12 15 17 19 20 23 25 28 30 30 29 27 26 25 24 22 21 21 21 21 20 19 18 18 17 16 16 16 17 17 17 16 16 15 15 14 13 12 11 10
17 18 18 16 14 12 11 12 13 14 14 13 11 9 8 8 8 9 10 12 13 12 10 6 7 8 8 8 9 9 8 8 6 6 8 7 7 6 5 4 5 6 5 4 7 11 14 17 19 21 23 25 28 29 30 30 29 27 26 25 23 22 21 21 20 20 19 19 18 18 17 16 16 16 16 16 16 15 15 14 13 13 12 11 10
16 17 17 16 15 14 13 12 13 14 14 14 14 12 11 10 10 11 12 13 13 14 13 10 8 7 7 8 9 9 9 9 8 8 9 9 8 9 6 4 5 6 5 5 8 12 14 16 18 20 23 25 27 29 30 31 30 29 28 26 25 23 22 21 20 20 20 19 19 19 18 18 17 17 16 15 15 15 14 14 13 12 11 10 10
16 17 17 17 17 15 14 14 14 14 15 15 15 15 14 12 12 13 14 14 14 15 15 14 10 7 7 8 8 9 10 10 9 9 9 9 10 10 8 7 8 6 6 4 7 11 13 15 18 20 22 24 27 28 30 31 31 31 30 28 27 25 24 23 22 21 20 20 20 19 19 19 19 18 17 16 15 15 14 14 13 12 11 10 10
16 16 17 17 17 16 15 15 15 15 16 16 17 18 17 15 13 14 15 15 16 16 17 17 15 11 9 9 9 9 10 10 10 9 9 9 11 13 13 12 10 7 7 5 6 10 12 15 17 19 21 24 26 28 30 31 32 31 31 30 29 27 26 25 24 22 21 21 20 20 20 19 19 19 18 18 17 16 15 15 14 13 12 11 10
15 15 15 15 16 16 15 15 15 16 16 17 17 18 20 19 17 15 15 17 18 18 19 19 18 15 13 12 12 11 10 11 10 10 11 9 10 13 14 14 11 8 8 7 8 11 12 14 16 17 20 23 25 27 29 30 31 32 32 31 31 29 28 27 25 24 23 22 22 21 21 21 20 20 19 18 17 17 17 16 15 14 13 12 11
14 13 13 14 13 14 14 14 14 15 16 17 17 19 21 22 21 18 17 18 19 19 20 20 20 19 17 16 16 14 12 13 12 11 12 11 12 13 13 13 12 10 9 8 9 11 11 13 15 17 19 22 25 27 29 30 31 32 32 32 31 31 30 28 27 26 25 24 23 23 22 22 22 21 21 19 18 18 18 17 16 16 14 13 12
14 13 13 13 13 12 12 12 13 14 15 16 17 18 20 23 24 23 21 19 20 20 19 20 21 22 21 19 19 18 16 15 15 14 14 13 14 14 13 13 13 12 11 10 10 10 9 11 14 17 19 20 23 26 28 29 30 32 32 32 32 32 31 30 29 28 27 26 26 25 24 24 23 22 22 21 19 19 18 18 17 17 16 15 14
16 15 15 15 14 13 12 11 12 13 14 15 16 17 19 22 24 25 25 23 21 19 19 21 22 23 24 23 22 21 20 18 17 16 16 16 16 15 15 15 15 16 15 14 12 10 9 10 12 15 17 18 21 24 26 28 30 31 32 33 33 32 32 31 30 30 29 28 28 26 25 25 24 23 23 22 21 20 19 19 18 17 17 16 16
16 17 17 17 15 15 13 11 11 12 13 14 15 15 17 20 23 26 27 27 24 22 21 22 23 23 24 24 24 24 23 21 20 20 19 19 19 17 16 16 17 18 18 16 15 13 11 10 11 12 14 16 19 22 24 26 28 30 32 33 34 33 32 32 31 31 30 30 29 28 26 26 25 24 24 23 22 21 20 19 18 18 18 17 16
14 16 17 17 16 15 14 13 11 11 12 13 14 15 16 17 20 24 26 28 29 27 26 25 25 25 24 23 24 25 23 22 23 23 23 22 21 19 19 19 20 21 20 19 16 15 14 12 11 11 12 14 16 20 23 24 26 29 31 33 34 34 34 33 32 32 31 31 30 29 28 27 26 25 24 24 23 22 21 20 19 19 19 18 17
12 14 15 15 14 13 13 13 13 12 13 13 14 15 16 17 18 21 25 28 30 31 31 30 29 28 27 25 25 24 23 24 26 26 26 25 23 22 22 22 23 22 22 20 18 17 16 15 14 13 13 13 15 17 20 23 24 27 30 32 33 34 35 34 34 33 32 32 31 30 29 28 27 26 25 24 23 23 22 21 20 20 19 18 18
11 12 13 12 12 11 11 13 14 14 14 14 15 15 17 17 17 19 21 25 28 31 33 34 34 33 31 30 29 28 26 26 29 29 29 29 27 25 24 24 24 24 23 22 19 18 18 18 18 16 14 14 15 16 18 20 22 25 28 31 32 34 35 35 35 35 34 34 33 32 31 29 28 26 25 25 24 23 22 22 21 20 20 19 18
10 11 11 11 10 9 9 11 13 13 14 15 16 16 17 18 18 19 19 22 24 28 31 34 37 37 36 35 34 33 32 30 30 30 30 31 30 29 27 28 28 27 26 24 22 20 19 19 19 18 16 15 16 17 19 20 21 23 26 29 31 33 34 36 36 36 36 36 35 34 32 30 29 28 27 26 25 24 23 22 22 21 20 18 18
10 10 10 10 10 9 8 9 11 12 13 14 16 16 17 17 18 19 20 21 22 24 27 30 34 37 39 40 39 38 37 35 34 33 32 32 32 33 31 31 32 30 29 28 26 23 21 20 20 19 18 17 18 19 21 21 22 23 25 27 30 32 33 35 37 38 38 38 37 36 34 33 31 30 29 28 27 26 24 23 23 22 20 19 18
10 10 10 10 10 10 9 10 11 12 13 13 14 15 16 17 18 19 20 21 22 24 25 27 30 33 36 39 41 41 40 39 38 36 35 34 33 33 34 35 35 33 31 30 29 27 24 21 21 20 19 20 20 22 22 22 23 24 25 26 29 31 33 35 36 38 39 39 39 38 36 35 33 32 31 30 28 27 26 25 24 23 22 20 19
11 10 9 8 9 9 11 11 12 13 13 14 14 15 15 16 18 19 20 21 22 24 25 27 29 30 32 35 38 40 42 42 41 40 39 38 35 34 36 38 39 38 35 33 31 30 27 25 23 22 21 23 24 25 25 23 24 25 26 27 28 30 32 34 36 37 38 40 40 39 38 37 36 35 34 32 31 29 28 27 26 25 24 22 21
11 10 9 8 8 9 10 12 13 13 14 15 15 16 16 16 17 19 21 22 23 23 24 27 29 30 31 31 33 36 40 42 43 43 42 41 39 37 37 38 41 42 39 36 33 33 30 27 26 25 25 25 26 27 26 24 25 27 27 27 28 29 31 33 35 36 38 39 40 40 40 40 39 38 36 35 34 32 31 29 28 27 26 25 24
11 10 9 8 8 9 10 11 12 13 14 15 16 17 17 18 18 19 20 22 24 24 24 25 27 29 31 31 32 32 35 39 43 44 44 44 43 41 39 37 39 41 40 38 36 36 33 30 30 29 28 28 29 29 29 27 26 28 28 27 29 30 31 31 33 35 36 37 38 40 41 42 41 40 39 38 37 35 34 32 31 30 29 27 26
10 9 8 8 8 8 9 9 9 10 12 14 16 17 17 18 20 20 20 22 24 25 26 25 26 27 30 32 33 32 33 35 39 43 45 46 45 44 43 41 39 38 39 40 39 38 35 34 35 30 29 31 32 31 32 30 27 27 29 30 30 30 31 33 32 32 33 34 36 38 40 42 42 41 40 39 39 38 37 36 35 33 31 30 28
9 8 8 7 7 7 7 6 7 7 8 10 13 15 16 18 19 20 20 20 22 24 25 26 26 26 28 30 32 34 33 33 35 38 42 45 46 46 46 44 42 39 38 40 42 39 37 38 38 32 31 33 34 34 35 32 29 28 29 30 29 30 31 33 32 31 32 33 34 36 39 40 42 42 41 41 41 41 40 38 37 36 34 32 31
8 7 7 6 7 6 5 5 6 7 8 9 9 10 12 15 16 18 19 19 19 21 24 25 26 26 26 28 30 33 34 34 35 36 38 41 44 46 46 46 46 43 41 40 41 40 39 40 39 36 36 34 32 36 39 35 30 29 29 28 28 31 30 30 31 33 34 34 33 35 37 39 40 41 41 42 43 43 41 39 38 38 37 35 33
8 6 6 6 7 6 5 5 6 7 9 10 10 9 9 11 12 14 15 16 17 18 20 23 25 25 25 26 28 30 33 34 36 36 37 38 40 43 45 47 47 48 47 44 43 42 41 41 39 39 41 37 32 36 42 39 33 31 30 29 28 30 29 28 30 31 34 36 35 35 35 36 38 38 39 41 43 43 41 40 39 39 37 36 36
8 6 5 6 6 6 6 7 8 8 10 11 12 12 11 10 11 12 12 13 15 17 18 20 23 25 25 25 26 28 30 32 35 36 37 39 39 41 43 45 47 48 50 50 48 47 45 44 42 41 43 42 39 40 42 41 38 35 32 31 30 29 28 28 29 28 31 34 36 37 36 35 36 36 37 39 42 43 42 40 39 38 37 37 37
8 6 5 5 6 7 7 8 9 10 12 14 15 15 15 14 13 13 13 13 14 16 17 18 19 22 24 25 25 26 28 30 32 34 37 38 40 41 42 44 45 47 49 51 51 51 50 49 47 44 43 43 42 41 39 39 42 39 34 33 32 30 28 28 30 29 28 27 30 36 38 37 37 36 36 37 39 40 41 40 38 36 37 38 38
9 7 6 6 6 8 9 10 12 13 14 16 17 18 18 18 17 16 16 16 15 16 17 18 18 19 21 23 25 25 27 29 31 33 35 37 39 40 42 43 44 45 47 49 49 49 50 50 49 47 46 45 43 42 41 42 44 41 37 37 35 32 30 30 30 30 30 26 22 29 36 38 37 37 36 35 36 37 38 37 36 36 37 38 38
10 8 7 7 8 9 11 12 14 16 17 18 20 21 22 21 20 20 19 18 18 18 18 19 20 19 20 21 24 25 26 28 30 32 35 36 38 39 41 42 43 45 46 47 48 48 48 48 48 47 47 47 46 47 47 47 48 44 40 40 39 35 31 30 30 29 31 30 23 24 32 36 36 37 37 35 34 35 35 35 34 34 36 37 36
11 10 9 9 10 11 13 15 16 18 20 21 22 23 24 24 23 23 22 21 21 20 19 19 20 21 21 21 23 25 26 28 29 31 33 35 37 38 40 41 41 43 44 45 46 47 47 46 46 47 46 47 48 50 50 50 51 49 44 43 43 38 32 30 30 29 29 29 27 26 29 32 35 35 37 37 35 35 35 34 33 32 34 35 35
Wind_Direction
235 227 237 249 259 258 254 260 268 275 297 347 341 13 33 27 37 33 32 46 46 44 46 44 37 40 89 99 106 125 132 117 94 75 68 82 94 97 108 115 120 121 127 136 140 146 147 146 142 136 131 130 137 140 138 136 135 132 130 129 127 127 125 124 125 129 130 128 129 130 130 130 132 133 133 133 132 131 129 127 122 119 115 110 106
232 221 222 233 244 256 265 260 267 277 286 329 335 329 357 30 46 47 52 54 45 40 33 17 34 31 65 99 126 130 135 123 101 87 78 92 106 108 116 133 136 127 126 133 141 148 149 146 141 136 131 131 139 141 140 139 137 132 130 130 129 128 128 126 128 132 132 130 131 131 131 132 134 135 136 135 134 133 131 129 126 123 118 112 108
227 235 233 231 221 238 271 273 262 272 267 296 319 311 339 27 51 66 97 76 43 24 13 345 267 4 25 48 129 139 136 126 114 108 96 102 118 123 124 138 143 133 128 133 145 152 149 145 141 137 131 136 143 143 141 140 137 133 132 133 131 130 129 129 131 134 133 132 133 132 133 135 136 136 137 137 135 134 133 132 129 126 121 115 111
213 229 242 238 210 219 255 286 270 273 271 277 312 318 339 24 63 85 130 130 81 350 354 322 271 349 3 36 102 141 139 134 129 125 116 114 127 133 119 128 141 139 133 135 148 155 151 145 142 137 135 142 147 145 143 142 139 136 134 135 132 130 129 131 134 135 135 136 136 135 136 137 138 138 139 139 137 136 135 133 131 128 122 117 113
220 218 229 222 204 218 220 275 273 281 287 283 299 314 338 8 74 94 120 135 134 166 295 285 265 346 3 38 67 135 151 151 148 144 138 133 140 129 111 122 139 142 141 143 150 156 153 144 142 139 139 149 152 149 146 144 141 138 136 136 133 131 129 132 135 137 138 139 138 137 138 139 141 141 141 141 139 138 136 135 133 130 124 119 114
232 225 230 220 190 224 219 233 256 271 285 281 288 304 340 8 80 98 112 142 141 148 210 249 224 7 22 33 37 56 177 163 160 156 150 145 148 130 120 134 139 140 141 147 154 156 154 145 145 144 145 154 157 153 149 146 143 140 138 138 135 132 130 133 138 139 140 141 140 139 140 142 143 143 143 143 142 141 138 137 135 131 127 121 116
238 232 229 219 203 226 222 223 242 255 261 264 275 291 307 4 79 105 112 147 148 152 184 218 232 35 47 39 41 22 284 175 158 144 146 148 145 128 121 139 142 140 139 146 156 157 157 152 150 149 150 158 160 156 151 148 145 142 140 140 137 132 131 134 139 142 141 142 142 141 143 144 145 144 144 145 144 143 140 139 137 133 129 123 118
245 237 223 215 216 234 229 221 234 243 242 246 259 273 277 311 68 131 136 142 146 158 168 201 232 30 55 51 55 39 322 261 173 138 143 141 129 121 114 129 144 145 142 147 157 161 162 159 155 152 152 159 162 158 152 149 146 144 142 141 138 132 132 135 141 144 143 143 143 144 146 147 147 146 146 146 146 144 142 141 140 136 131 126 121
249 243 228 227 232 243 238 226 232 239 239 239 246 264 266 271 15 147 159 143 141 160 164 192 217 134 66 63 58 26 348 289 214 163 157 139 117 118 118 132 146 145 145 152 161 168 167 163 159 154 153 159 163 159 153 150 148 146 144 143 139 135 135 137 142 146 145 143 144 147 148 149 148 147 146 146 145 144 143 143 142 139 134 131 126
248 246 238 241 239 242 245 239 241 241 240 245 252 282 286 344 23 43 130 144 142 156 303 358 135 137 72 71 55 24 19 307 296 254 175 141 113 119 131 141 144 145 148 157 164 171 171 166 161 156 155 159 161 159 154 151 150 147 146 145 142 139 138 140 144 147 146 144 145 148 151 150 148 147 147 145 144 144 144 144 142 140 138 135 130
245 244 241 246 246 248 252 245 242 235 229 238 242 281 318 11 27 25 34 68 98 39 338 326 355 5 10 72 66 31 25 298 308 310 226 154 108 125 135 144 146 147 151 158 165 172 173 167 163 159 158 158 159 159 155 152 151 149 148 148 145 143 142 143 146 148 147 145 146 148 150 150 147 146 145 143 142 142 144 144 143 142 141 138 134
237 237 236 243 249 248 250 248 242 231 225 225 214 225 300 354 14 9 347 334 331 326 335 316 300 309 323 15 77 36 360 308 299 303 283 276 266 149 134 144 151 152 154 160 167 172 172 169 165 161 159 158 157 158 155 153 153 151 151 150 147 146 146 147 147 148 147 147 148 149 150 150 147 145 143 142 140 141 142 144 144 144 143 141 139
233 234 232 237 240 237 243 245 241 237 237 237 227 217 240 311 343 346 332 324 316 301 325 321 300 294 301 301 21 26 352 329 296 293 289 285 280 225 149 150 159 158 156 162 170 172 173 171 166 162 161 159 157 158 156 155 155 153 153 151 148 149 150 149 149 150 148 149 150 151 151 150 147 144 142 141 140 139 140 142 144 144 145 145 144
237 237 234 230 228 228 243 247 235 221 218 233 231 228 246 282 318 330 334 327 310 299 306 313 305 298 302 291 302 344 349 321 292 284 280 277 276 259 176 157 164 166 161 165 173 173 174 170 165 164 162 159 158 159 157 157 157 156 155 152 149 150 151 151 152 151 151 151 151 151 151 151 150 146 144 142 141 140 140 142 143 144 147 148 148
238 233 233 228 223 220 242 267 244 220 218 230 237 240 258 273 284 311 321 316 300 299 303 299 296 296 320 288 269 298 331 332 304 285 275 270 267 264 210 168 168 171 167 170 174 175 174 169 166 165 164 160 160 161 159 158 160 159 156 154 152 152 153 153 154 154 153 153 153 152 152 153 153 151 149 146 145 145 143 145 144 145 148 149 150
237 227 228 228 229 226 238 279 271 233 240 243 241 237 248 280 281 288 288 288 288 297 299 294 291 290 317 302 263 278 319 349 322 288 275 270 262 256 214 176 171 173 172 174 175 177 175 170 168 167 166 163 163 165 162 160 161 161 159 157 156 154 153 153 154 156 155 156 156 155 154 155 157 158 155 151 150 148 147 147 147 147 149 150 153
234 226 231 231 228 232 242 264 270 268 282 251 212 223 255 284 282 267 265 262 263 282 283 291 299 292 298 306 266 262 313 360 325 288 254 233 252 253 208 182 174 173 174 178 176 180 179 172 170 168 167 166 167 169 166 163 163 162 161 160 160 158 153 152 154 157 158 159 160 159 158 158 160 163 161 157 155 152 150 149 150 150 152 154 157
236 229 232 232 227 230 239 252 259 265 283 278 260 265 275 278 272 258 256 244 237 270 278 291 303 299 289 285 265 260 4 9 331 293 236 191 176 68 143 183 179 173 174 181 181 184 183 175 173 171 168 169 171 172 170 167 164 164 164 163 164 162 154 152 154 157 160 161 162 162 162 162 163 167 166 163 160 157 155 152 152 153 156 159 159
237 232 229 229 230 234 240 245 252 259 270 283 285 287 284 279 271 255 248 234 225 265 285 297 302 293 262 223 267 295 46 16 337 313 224 186 182 118 78 153 177 175 177 185 186 186 186 179 176 174 171 171 173 175 174 171 168 166 166 166 165 165 158 155 157 158 161 162 164 164 164 165 167 169 169 167 166 163 160 157 156 157 161 162 162
238 228 224 226 230 234 241 245 246 250 258 269 277 282 281 279 274 252 239 228 212 203 258 232 279 239 199 165 153 60 68 40 358 12 193 195 195 167 112 113 161 172 178 186 189 187 186 183 180 176 174 174 176 177 177 176 172 169 169 168 167 168 164 161 159 159 162 161 163 164 166 168 171 173 172 171 171 168 166 164 162 163 165 165 166
244 232 224 226 231 234 240 245 246 246 250 257 261 266 269 273 267 244 229 216 197 192 187 144 140 142 167 154 121 97 82 87 77 95 187 207 205 195 165 123 142 164 175 184 188 187 184 183 183 180 177 177 178 178 179 180 178 175 174 171 169 171 170 166 163 161 161 161 163 165 168 171 174 176 176 176 175 173 173 172 169 169 170 170 171
246 241 234 231 232 235 238 241 244 244 243 245 245 242 243 256 251 230 217 203 192 199 187 152 142 124 156 148 119 128 121 119 147 149 164 208 217 210 176 151 146 154 164 182 189 187 184 183 183 184 182 180 181 181 181 183 182 182 180 175 173 175 174 171 169 167 164 162 164 167 170 174 177 179 180 180 179 179 179 178 176 176 176 177 179
243 241 238 236 237 237 240 240 239 239 236 232 232 229 227 231 219 209 209 206 205 209 191 155 150 135 161 153 135 161 175 149 170 178 166 206 217 210 190 190 177 141 145 163 189 190 186 185 185 187 186 183 183 184 184 185 186 187 185 181 180 180 178 176 175 174 172 167 166 168 173 177 181 184 185 185 184 185 185 184 183 183 184 185 187
242 241 238 237 241 242 245 245 240 235 230 224 219 219 221 220 211 208 218 226 228 227 219 175 169 167 164 160 152 166 179 162 175 184 171 203 214 200 224 221 198 188 159 150 181 194 191 189 188 189 189 187 185 187 187 188 191 191 189 187 187 186 184 182 180 180 181 177 173 174 177 180 184 188 190 190 190 191 191 191 190 190 191 193 196
245 244 241 238 242 246 249 251 247 237 228 220 214 216 219 217 216 212 221 232 234 234 231 206 187 179 164 171 172 171 175 171 188 189 172 193 205 193 209 222 202 212 219 180 175 190 195 193 191 190 191 191 188 189 190 190 193 195 195 194 192 192 192 190 187 186 188 187 184 183 185 186 189 194 196 195 196 199 199 198 197 197 198 200 204
249 248 247 245 247 249 250 252 252 245 235 223 214 216 221 220 221 217 220 228 230 232 236 228 209 191 178 187 186 181 181 179 198 199 180 185 192 191 197 220 215 214 225 209 182 184 193 195 193 192 192 193 191 191 192 193 195 197 199 199 198 197 198 198 196 194 194 194 193 192 194 195 196 200 203 203 202 205 209 207 205 205 205 207 211
252 251 252 252 254 254 252 252 251 247 241 231 219 216 220 220 223 226 226 228 226 227 236 240 231 210 204 208 197 194 192 187 201 207 194 189 193 197 199 211 214 215 229 224 191 184 188 195 195 194 195 195 195 194 194 196 197 200 202 203 203 202 202 204 204 203 202 201 200 201 202 204 205 207 208 210 211 212 217 217 214 214 214 216 219
259 257 255 256 259 260 256 253 250 246 241 236 225 219 219 215 216 227 231 229 228 228 233 241 240 228 223 227 217 207 204 198 200 208 205 196 202 203 200 207 207 211 228 221 200 192 188 193 195 196 199 198 198 198 198 199 200 202 204 205 207 206 206 208 209 209 209 209 209 210 212 214 216 218 217 217 217 219 222 223 222 223 224 224 228
263 264 263 260 260 261 260 256 251 245 239 235 229 223 222 218 212 218 226 228 231 236 238 239 239 236 233 233 227 215 210 209 202 208 212 204 209 209 205 210 208 210 220 210 206 204 196 193 194 198 202 202 202 201 201 202 204 205 207 208 210 210 211 212 213 214 215 216 215 217 219 222 225 228 229 227 224 223 225 227 228 229 230 231 236
262 266 269 266 263 263 262 259 252 246 240 235 230 225 224 224 218 215 220 226 230 237 240 242 243 242 241 237 230 221 214 215 210 211 218 217 218 215 211 214 216 219 215 209 210 208 202 195 195 199 203 205 205 205 205 205 206 208 210 211 212 214 215 215 216 218 220 221 222 223 224 227 230 234 237 235 231 228 228 229 230 232 234 236 240
266 269 274 273 269 266 264 262 256 249 245 239 234 228 225 227 225 219 220 224 227 230 232 238 245 248 248 241 233 228 220 220 219 215 217 221 221 215 212 214 219 225 218 215 215 208 206 200 197 201 203 206 208 209 209 209 209 210 212 213 215 216 217 218 218 219 222 225 227 227 228 231 233 236 239 239 237 234 231 230 231 233 236 238 242
274 275 279 281 279 276 273 269 261 254 248 243 238 232 226 227 229 225 222 223 225 227 227 231 236 242 246 244 237 233 229 227 226 223 221 220 220 216 215 216 216 224 224 221 220 215 211 205 203 204 205 207 209 211 212 212 213 214 214 215 217 219 219 220 220 221 223 225 227 229 230 231 233 236 238 238 238 237 235 233 232 233 235 239 242
280 281 282 285 286 284 281 275 268 260 252 246 242 236 228 224 228 230 227 225 225 225 228 230 233 236 241 242 239 235 234 234 231 230 229 225 223 218 219 223 220 223 226 222 223 223 217 211 210 210 209 210 210 211 213 215 216 217 217 217 218 220 221 222 223 223 223 225 227 229 229 230 231 233 235 236 237 238 237 235 235 235 236 239 243
282 283 283 283 284 284 281 276 271 266 259 252 246 241 236 227 224 229 231 230 227 226 228 231 234 237 240 242 240 237 235 238 236 232 232 230 227 222 221 226 226 225 225 225 225 225 223 221 219 218 217 217 215 213 213 214 218 220 220 221 220 221 222 223 225 226 226 227 228 229 229 229 230 231 233 234 236 238 238 237 236 237 238 240 244
280 281 281 282 281 279 275 273 269 265 262 258 251 245 241 236 228 226 229 232 232 231 232 233 235 236 238 240 241 240 235 237 239 235 233 233 232 227 223 226 231 229 226 226 228 227 226 227 228 226 225 227 224 220 216 214 216 221 223 224 223 222 223 223 226 228 229 230 230 230 230 230 230 230 231 232 234 237 238 238 238 238 240 242 245
278 274 275 277 278 274 266 265 264 261 259 257 254 248 244 242 238 231 229 232 234 235 235 237 238 238 238 238 239 241 237 234 238 237 235 235 234 232 230 231 235 236 232 229 228 228 228 229 231 229 230 237 234 226 222 219 216 220 223 226 226 225 224 224 226 229 230 232 232 232 231 231 232 231 231 231 232 235 237 238 238 238 240 243 246
275 267 267 266 267 266 261 259 260 259 258 257 255 251 247 245 244 241 236 234 235 237 238 239 240 242 242 242 240 240 239 237 239 241 238 238 237 234 232 233 235 236 236 234 230 229 229 229 232 232 230 237 242 235 226 223 221 221 222 225 227 227 227 226 227 228 230 233 234 234 233 233 234 234 233 233 233 234 236 237 238 239 240 242 246
267 258 258 257 255 253 252 253 257 260 261 260 259 256 252 250 248 247 244 242 240 240 241 241 242 243 243 244 244 243 241 239 239 242 241 240 240 238 235 234 236 237 237 237 234 233 232 229 231 234 232 231 239 241 231 225 225 225 224 224 226 228 228 228 228 228 230 233 235 236 236 235 235 235 236 235 235 235 236 237 239 239 241 243 246
259 252 251 253 253 248 246 248 252 258 261 262 262 261 260 258 257 255 252 249 246 245 244 244 245 245 245 245 245 245 244 242 240 240 241 241 242 243 241 238 240 240 239 238 236 235 238 236 234 234 235 231 234 243 240 232 228 229 228 227 227 227 227 228 229 230 230 233 235 237 238 238 237 237 238 238 238 238 237 238 240 241 242 244 248
254 250 248 249 252 250 247 246 247 251 255 258 262 264 265 264 264 263 261 257 252 248 246 246 247 248 248 247 246 245 244 244 243 241 241 242 243 244 243 242 242 241 239 239 237 237 241 244 243 240 238 234 234 241 244 239 235 234 232 231 230 229 229 229 229 230 231 233 234 236 239 239 240 240 240 241 241 241 240 239 241 242 244 246 249
248 248 244 244 249 249 247 246 247 249 251 254 257 260 265 268 268 268 268 267 262 256 250 247 247 249 250 250 249 247 245 244 244 244 243 243 243 243 244 244 243 243 241 240 239 238 239 243 246 245 243 237 235 239 243 243 242 240 237 236 236 234 233 231 230 230 231 232 234 235 237 239 241 242 242 243 243 244 243 242 243 244 245 246 249
244 245 240 241 247 247 245 245 248 252 255 258 258 258 260 264 266 267 268 270 270 267 261 253 249 248 250 251 250 249 247 245 244 245 245 245 244 244 245 245 244 245 244 242 241 238 238 242 245 246 247 243 237 236 241 244 245 246 244 242 240 238 237 235 233 233 232 233 234 235 237 238 240 242 243 245 245 246 247 246 246 246 247 247 249
239 238 235 237 245 247 246 247 251 255 257 260 261 261 260 260 261 263 265 268 270 270 269 265 258 251 248 249 250 249 247 246 245 244 245 246 247 247 248 247 246 246 244 241 240 238 238 242 244 243 245 247 242 235 238 242 242 245 247 246 244 242 239 237 235 235 235 234 234 235 237 238 239 240 242 244 246 247 247 248 249 250 251 251 251
231 229 232 236 240 241 244 255 265 268 266 263 261 262 262 260 259 260 262 266 270 271 270 269 266 261 253 249 249 249 248 247 245 245 244 245 247 249 251 251 249 248 245 241 241 240 238 243 247 244 243 248 248 239 237 239 237 238 245 247 248 248 243 240 238 237 237 236 235 235 236 238 239 240 241 243 244 246 246 248 250 251 252 253 253
218 221 228 229 229 232 246 267 279 284 287 282 273 266 262 262 262 260 261 265 270 274 274 272 270 267 262 255 250 248 248 248 247 246 245 245 245 248 250 251 252 250 248 244 244 245 242 244 248 249 248 250 250 245 240 237 234 235 240 244 246 248 247 245 242 239 238 237 236 236 235 236 238 239 240 241 243 245 247 247 248 250 251 252 252
207 213 220 222 227 238 257 276 285 292 297 296 291 285 275 270 270 267 267 270 273 276 278 277 274 271 267 263 257 252 249 247 247 246 246 245 245 246 247 248 250 250 250 247 246 248 247 246 246 248 252 251 250 251 245 236 232 233 237 240 241 245 247 245 245 244 242 239 237 238 237 236 237 238 239 241 243 244 245 246 247 248 249 249 250
208 211 220 231 240 254 269 281 290 297 302 302 301 300 295 289 284 280 278 279 281 280 280 280 277 275 272 268 264 259 255 252 249 247 247 246 245 245 245 246 247 248 249 249 248 249 251 252 249 248 252 252 251 253 248 239 235 232 233 238 239 241 243 243 243 245 246 244 240 239 239 239 238 237 238 240 242 243 243 244 246 247 247 247 247
218 222 234 252 261 269 277 284 292 299 303 304 306 307 306 303 299 294 289 288 291 289 284 281 278 276 273 271 267 264 262 260 257 254 251 249 247 246 245 245 246 246 248 249 248 248 250 252 253 252 253 254 254 250 244 245 245 238 233 235 237 238 238 239 240 241 246 248 245 243 241 240 240 239 239 240 241 242 242 242 244 245 246 246 246
225 231 246 264 275 281 285 288 292 298 302 303 306 307 308 308 306 303 298 294 295 296 291 285 281 276 271 268 266 265 265 264 263 262 259 256 253 250 248 246 245 245 246 248 249 249 249 249 251 253 254 256 256 248 239 244 250 247 241 236 235 235 234 236 238 237 242 245 247 247 244 241 241 241 241 240 241 242 241 240 240 242 243 244 245
232 237 252 267 278 284 288 291 293 297 300 301 303 304 306 308 307 306 303 298 296 298 297 292 287 281 274 268 263 262 263 264 264 265 265 263 261 257 254 250 248 247 246 246 247 248 249 249 249 250 251 252 255 252 244 245 249 249 249 243 234 232 231 233 236 235 238 242 243 248 248 243 242 243 243 242 242 242 241 238 237 240 243 244 245
238 244 258 269 275 282 287 290 293 295 297 298 299 301 303 304 306 307 305 302 298 298 298 296 291 286 280 273 266 261 260 261 263 264 266 266 265 263 261 257 253 250 248 247 246 246 247 248 248 248 249 248 251 252 250 251 251 248 251 247 238 234 232 230 233 235 238 243 243 245 250 249 245 243 244 242 242 241 240 237 235 237 241 242 243
Height
3169 3170 3170 3168 3168 3169 3169 3169 3168 3168 3168 3168 3168 3167 3167 3167 3167 3167 3166 3166 3166 3165 3165 3165 3166 3166 3165 3165 3166 3166 3166 3167 3168 3169 3170 3170 3171 3171 3172 3173 3173 3173 3174 3175 3175 3176 3176 3177 3178 3178 3179 3179 3181 3183 3185 3186 3187 3187 3188 3190 3191 3192 3192 3191 3191 3193 3194 3195 3196 3197 3197 3198 3199 3200 3200 3201 3201 3203 3204 3205 3205 3205 3205 3205 3205
3168 3169 3169 3168 3169 3170 3169 3169 3168 3168 3168 3168 3168 3168 3167 3167 3168 3167 3166 3166 3167 3167 3167 3166 3167 3167 3166 3166 3166 3167 3167 3167 3168 3169 3170 3171 3172 3172 3173 3173 3173 3173 3174 3175 3176 3176 3177 3177 3178 3179 3180 3180 3181 3183 3185 3187 3187 3188 3189 3191 3192 3193 3193 3192 3192 3194 3194 3196 3197 3198 3199 3199 3200 3201 3201 3202 3202 3203 3204 3205 3206 3206 3206 3206 3206
3168 3168 3167 3168 3170 3169 3169 3169 3168 3168 3168 3168 3168 3168 3168 3168 3168 3168 3168 3167 3168 3168 3168 3168 3168 3168 3167 3167 3167 3168 3168 3168 3169 3170 3171 3172 3172 3173 3174 3174 3174 3174 3175 3176 3177 3177 3177 3178 3179 3180 3181 3181 3182 3184 3185 3187 3188 3189 3190 3192 3193 3193 3194 3194 3193 3194 3196 3197 3198 3199 3200 3201 3201 3202 3203 3203 3203 3204 3205 3206 3206 3206 3207 3207 3207
3167 3167 3166 3166 3167 3167 3168 3170 3169 3168 3168 3168 3169 3169 3169 3169 3168 3169 3168 3168 3169 3170 3169 3169 3169 3169 3168 3168 3168 3169 3169 3170 3170 3171 3171 3172 3173 3173 3174 3175 3175 3175 3175 3176 3177 3178 3178 3178 3179 3180 3182 3182 3183 3184 3186 3188 3189 3190 3191 3193 3193 3194 3195 3195 3195 3195 3197 3198 3199 3200 3201 3202 3203 3203 3204 3204 3204 3205 3205 3206 3207 3207 3208 3208 3208
3167 3167 3166 3166 3167 3168 3169 3169 3169 3169 3169 3169 3169 3169 3169 3170 3169 3169 3169 3169 3170 3171 3171 3171 3171 3170 3169 3169 3169 3169 3170 3170 3171 3171 3172 3172 3173 3174 3174 3175 3175 3175 3176 3176 3177 3178 3178 3179 3180 3181 3182 3184 3184 3185 3186 3188 3190 3191 3192 3193 3194 3195 3196 3197 3196 3196 3198 3199 3200 3201 3202 3203 3204 3204 3204 3205 3205 3206 3206 3207 3207 3208 3209 3209 3209
3167 3166 3166 3166 3168 3169 3169 3168 3168 3168 3168 3169 3169 3169 3169 3170 3170 3170 3170 3169 3170 3171 3172 3172 3172 3171 3170 3169 3169 3170 3170 3171 3172 3172 3172 3172 3174 3174 3174 3175 3175 3175 3176 3176 3177 3178 3179 3179 3180 3181 3183 3184 3184 3185 3187 3189 3190 3191 3193 3194 3195 3196 3197 3197 3197 3197 3199 3201 3201 3202 3203 3204 3205 3205 3205 3206 3206 3206 3207 3207 3208 3209 3209 3210 3210
3166 3166 3166 3166 3167 3168 3168 3168 3168 3168 3168 3168 3169 3169 3169 3170 3170 3170 3170 3170 3170 3171 3174 3173 3172 3171 3170 3170 3169 3170 3171 3171 3172 3172 3172 3173 3174 3174 3175 3175 3175 3176 3176 3177 3177 3178 3179 3179 3180 3181 3183 3184 3185 3186 3188 3189 3191 3192 3193 3195 3196 3197 3197 3198 3198 3198 3199 3201 3203 3203 3204 3205 3206 3206 3206 3207 3207 3207 3207 3208 3209 3209 3210 3211 3211
3166 3166 3166 3166 3167 3168 3168 3168 3168 3168 3167 3168 3168 3169 3169 3169 3169 3170 3170 3170 3171 3172 3173 3173 3172 3171 3170 3170 3170 3170 3171 3172 3172 3172 3173 3173 3174 3174 3175 3175 3175 3176 3176 3177 3178 3179 3179 3180 3180 3181 3183 3184 3186 3187 3188 3190 3191 3192 3194 3195 3197 3197 3198 3199 3200 3200 3200 3202 3203 3204 3205 3206 3207 3207 3207 3208 3208 3209 3208 3209 3209 3210 3210 3211 3212
3165 3165 3165 3166 3168 3168 3167 3167 3167 3167 3167 3167 3167 3168 3168 3168 3168 3169 3170 3171 3171 3171 3172 3172 3171 3170 3170 3170 3169 3170 3172 3172 3173 3173 3173 3173 3174 3174 3175 3175 3175 3176 3176 3177 3178 3179 3179 3180 3180 3181 3182 3184 3186 3188 3189 3190 3192 3193 3194 3196 3198 3198 3199 3200 3201 3201 3202 3203 3204 3205 3206 3207 3208 3209 3209 3209 3210 3210 3210 3210 3210 3210 3211 3212 3212
3165 3165 3165 3166 3167 3167 3167 3167 3166 3167 3168 3168 3168 3168 3168 3168 3168 3169 3170 3170 3170 3170 3170 3170 3170 3170 3170 3169 3169 3170 3172 3173 3173 3174 3174 3173 3174 3174 3175 3175 3175 3175 3176 3177 3178 3179 3179 3180 3180 3181 3182 3184 3186 3188 3189 3191 3192 3193 3195 3197 3198 3199 3200 3201 3202 3202 3203 3204 3205 3206 3208 3208 3209 3210 3210 3211 3211 3211 3211 3211 3211 3211 3211 3212 3212
3165 3165 3165 3166 3167 3167 3166 3166 3165 3166 3167 3168 3168 3168 3169 3168 3168 3169 3170 3170 3170 3169 3169 3169 3169 3170 3170 3169 3169 3170 3172 3172 3173 3174 3174 3174 3174 3175 3175 3175 3176 3176 3176 3177 3178 3179 3180 3180 3181 3182 3182 3184 3187 3189 3190 3191 3193 3194 3195 3197 3199 3200 3200 3201 3202 3203 3204 3205 3206 3207 3209 3210 3210 3211 3211 3212 3212 3212 3212 3212 3212 3212 3212 3212 3213
3165 3165 3165 3165 3166 3166 3166 3165 3164 3165 3167 3168 3168 3169 3169 3169 3169 3170 3170 3170 3170 3170 3170 3170 3169 3170 3170 3170 3169 3170 3171 3172 3172 3173 3174 3174 3174 3175 3175 3176 3176 3176 3177 3177 3178 3179 3180 3181 3181 3182 3183 3184 3187 3189 3191 3192 3193 3194 3195 3197 3199 3201 3201 3202 3203 3203 3204 3205 3207 3208 3209 3210 3211 3212 3212 3212 3212 3213 3213 3213 3213 3213 3213 3213 3213
3165 3165 3165 3165 3165 3166 3165 3164 3164 3166 3169 3169 3170 3170 3169 3170 3170 3170 3170 3170 3170 3170 3170 3170 3170 3169 3170 3170 3169 3170 3171 3171 3172 3173 3174 3174 3174 3175 3175 3175 3175 3176 3177 3177 3178 3179 3180 3181 3182 3183 3184 3186 3187 3189 3191 3192 3193 3194 3196 3198 3200 3202 3202 3203 3203 3204 3205 3206 3207 3209 3210 3211 3211 3212 3212 3213 3213 3213 3213 3214 3214 3214 3214 3214 3214
3164 3164 3165 3165 3165 3165 3164 3164 3165 3167 3169 3168 3169 3170 3170 3170 3171 3171 3170 3170 3170 3169 3169 3169 3169 3169 3169 3170 3170 3170 3170 3171 3172 3172 3173 3174 3174 3175 3175 3175 3175 3176 3177 3177 3178 3179 3181 3182 3183 3184 3185 3186 3188 3189 3190 3192 3194 3195 3196 3198 3200 3202 3203 3204 3204 3205 3205 3206 3208 3209 3210 3211 3212 3212 3213 3213 3213 3213 3214 3214 3214 3214 3214 3214 3215
3163 3163 3163 3164 3164 3165 3164 3164 3165 3167 3167 3166 3167 3170 3171 3171 3172 3171 3170 3169 3169 3169 3169 3169 3169 3169 3169 3170 3170 3170 3170 3171 3171 3171 3172 3173 3173 3174 3175 3175 3175 3176 3177 3178 3179 3180 3181 3182 3183 3184 3186 3187 3188 3189 3190 3192 3194 3195 3196 3198 3200 3202 3203 3204 3205 3205 3206 3207 3208 3209 3210 3211 3212 3212 3213 3213 3213 3213 3214 3214 3214 3215 3215 3215 3215
3162 3162 3162 3162 3163 3164 3164 3165 3165 3166 3167 3166 3167 3170 3171 3171 3171 3171 3170 3169 3169 3169 3168 3168 3169 3169 3169 3170 3170 3170 3170 3170 3171 3171 3171 3172 3173 3174 3174 3174 3175 3176 3177 3178 3179 3180 3181 3182 3184 3185 3186 3188 3189 3190 3190 3191 3193 3195 3197 3198 3200 3202 3203 3204 3205 3206 3207 3207 3208 3209 3210 3211 3211 3212 3212 3212 3213 3213 3213 3214 3214 3215 3215 3215 3216
3160 3161 3161 3161 3162 3162 3162 3163 3163 3166 3168 3169 3169 3170 3170 3171 3170 3170 3170 3169 3169 3169 3168 3168 3168 3169 3169 3169 3170 3170 3170 3169 3170 3170 3171 3172 3173 3173 3174 3175 3175 3176 3177 3178 3179 3180 3182 3183 3184 3185 3186 3188 3189 3190 3191 3192 3193 3195 3197 3198 3200 3202 3203 3205 3206 3207 3207 3207 3208 3209 3209 3210 3211 3211 3212 3212 3212 3213 3213 3214 3214 3215 3215 3215 3216
3160 3160 3160 3159 3160 3160 3160 3161 3161 3164 3166 3168 3169 3169 3169 3169 3168 3169 3169 3169 3169 3169 3168 3168 3168 3168 3168 3168 3169 3170 3169 3169 3170 3170 3170 3171 3172 3173 3174 3175 3175 3176 3177 3179 3180 3181 3182 3183 3184 3185 3186 3188 3189 3190 3192 3192 3193 3195 3197 3198 3200 3202 3203 3204 3206 3207 3207 3208 3208 3209 3209 3210 3210 3211 3211 3211 3212 3212 3213 3213 3214 3214 3215 3215 3216
3159 3159 3159 3159 3159 3159 3159 3160 3161 3162 3164 3165 3167 3167 3167 3167 3167 3167 3168 3168 3169 3169 3168 3167 3167 3167 3167 3167 3168 3168 3168 3169 3169 3170 3170 3171 3171 3173 3174 3175 3175 3176 3177 3179 3180 3181 3182 3184 3184 3185 3186 3188 3189 3191 3192 3193 3193 3195 3197 3198 3200 3202 3203 3204 3205 3206 3207 3208 3208 3209 3209 3210 3210 3210 3211 3211 3211 3212 3212 3213 3213 3214 3215 3215 3216
3158 3158 3158 3158 3158 3158 3158 3159 3161 3162 3164 3165 3165 3165 3165 3165 3165 3166 3167 3168 3168 3168 3167 3166 3166 3166 3167 3167 3167 3167 3168 3169 3170 3170 3170 3171 3171 3173 3174 3175 3176 3176 3178 3179 3180 3181 3183 3184 3184 3185 3186 3187 3189 3190 3192 3193 3194 3195 3197 3198 3200 3202 3203 3204 3205 3206 3207 3208 3208 3209 3210 3210 3210 3211 3211 3211 3211 3212 3212 3213 3213 3214 3214 3215 3215
3157 3157 3157 3157 3157 3157 3157 3157 3159 3161 3163 3164 3164 3164 3164 3164 3164 3165 3166 3167 3167 3167 3166 3165 3165 3166 3166 3166 3166 3167 3168 3170 3170 3171 3171 3171 3172 3173 3174 3175 3176 3177 3178 3179 3180 3181 3182 3183 3184 3185 3185 3187 3188 3189 3191 3193 3194 3195 3197 3198 3200 3202 3203 3204 3205 3206 3207 3207 3208 3209 3210 3210 3211 3211 3211 3212 3211 3212 3212 3213 3213 3214 3214 3215 3215
3155 3155 3155 3155 3155 3155 3156 3156 3157 3159 3161 3162 3163 3163 3163 3163 3163 3163 3164 3165 3165 3165 3165 3164 3165 3166 3166 3166 3166 3167 3169 3170 3171 3171 3171 3171 3172 3173 3174 3175 3175 3176 3178 3179 3180 3180 3181 3183 3184 3185 3185 3186 3188 3189 3190 3192 3194 3195 3197 3198 3199 3201 3203 3204 3205 3206 3207 3207 3208 3209 3210 3211 3211 3212 3212 3212 3212 3212 3212 3213 3213 3214 3214 3215 3215
3153 3154 3153 3154 3154 3154 3154 3155 3155 3157 3159 3160 3161 3162 3162 3162 3163 3163 3163 3163 3164 3165 3165 3164 3165 3166 3167 3167 3167 3168 3170 3170 3171 3171 3171 3172 3173 3173 3174 3175 3175 3176 3177 3178 3180 3180 3181 3182 3183 3184 3185 3185 3187 3188 3190 3191 3193 3195 3197 3198 3199 3200 3202 3203 3204 3206 3207 3207 3208 3209 3210 3211 3212 3212 3213 3213 3212 3212 3213 3213 3214 3214 3214 3215 3215
3152 3152 3152 3152 3153 3153 3154 3153 3154 3155 3157 3158 3160 3160 3160 3161 3162 3162 3162 3162 3163 3164 3164 3164 3165 3166 3167 3167 3168 3169 3170 3170 3170 3172 3172 3171 3172 3173 3174 3175 3175 3175 3177 3178 3179 3181 3181 3182 3183 3184 3184 3185 3186 3187 3189 3190 3192 3194 3196 3198 3199 3200 3201 3202 3203 3205 3206 3207 3208 3209 3210 3211 3212 3212 3213 3213 3213 3213 3213 3213 3214 3214 3214 3215 3215
3150 3150 3151 3151 3151 3152 3153 3153 3153 3154 3155 3156 3158 3158 3159 3160 3160 3161 3161 3161 3162 3162 3163 3164 3164 3165 3166 3167 3167 3168 3169 3170 3170 3172 3172 3171 3172 3173 3174 3174 3174 3175 3176 3177 3178 3180 3181 3182 3183 3183 3184 3185 3185 3186 3188 3189 3191 3193 3196 3197 3198 3200 3201 3202 3203 3204 3205 3206 3207 3209 3209 3210 3211 3212 3212 3213 3213 3213 3213 3214 3214 3214 3214 3214 3214
3149 3149 3149 3150 3150 3151 3152 3152 3152 3152 3153 3155 3156 3157 3157 3158 3159 3160 3160 3160 3161 3161 3162 3163 3164 3164 3165 3166 3167 3168 3168 3169 3170 3171 3172 3172 3172 3173 3173 3174 3174 3174 3175 3176 3177 3179 3180 3181 3182 3183 3184 3185 3185 3186 3187 3188 3190 3192 3194 3196 3197 3198 3200 3201 3202 3203 3204 3205 3207 3208 3209 3209 3210 3211 3211 3212 3212 3213 3213 3214 3214 3214 3214 3214 3214
3147 3147 3147 3148 3149 3150 3151 3151 3151 3151 3152 3153 3154 3155 3155 3156 3158 3158 3159 3159 3159 3160 3161 3162 3163 3164 3164 3165 3166 3167 3168 3168 3169 3170 3171 3172 3172 3173 3173 3174 3174 3174 3175 3175 3176 3178 3179 3180 3181 3182 3183 3184 3185 3186 3186 3187 3189 3190 3192 3194 3196 3197 3198 3200 3201 3202 3203 3204 3205 3207 3208 3208 3209 3209 3210 3211 3212 3212 3213 3213 3214 3214 3214 3214 3214
3145 3146 3146 3146 3147 3148 3149 3150 3150 3150 3150 3151 3152 3153 3153 3155 3157 3157 3157 3158 3158 3158 3159 3160 3162 3163 3164 3165 3165 3166 3167 3167 3168 3169 3170 3172 3173 3173 3174 3174 3174 3175 3175 3175 3176 3177 3178 3179 3181 3182 3183 3184 3185 3185 3186 3187 3188 3189 3190 3192 3194 3195 3196 3198 3199 3200 3202 3203 3204 3205 3206 3207 3208 3208 3209 3210 3211 3211 3212 3213 3213 3214 3214 3214 3214
3144 3144 3144 3145 3145 3146 3147 3148 3148 3149 3149 3149 3150 3151 3151 3152 3154 3155 3156 3157 3157 3157 3158 3158 3160 3161 3163 3164 3165 3165 3166 3167 3167 3168 3169 3171 3172 3173 3174 3174 3174 3175 3175 3175 3176 3177 3177 3178 3179 3181 3182 3183 3184 3185 3186 3186 3187 3188 3189 3191 3192 3194 3195 3196 3197 3199 3200 3201 3202 3204 3205 3206 3207 3207 3208 3209 3209 3210 3211 3212 3212 3213 3213 3213 3213
3143 3143 3143 3143 3144 3144 3145 3146 3146 3147 3147 3147 3148 3149 3149 3150 3152 3153 3154 3155 3156 3156 3157 3157 3158 3159 3161 3162 3163 3164 3165 3165 3165 3166 3167 3169 3171 3171 3172 3173 3173 3174 3174 3174 3175 3176 3176 3177 3178 3180 3181 3182 3183 3184 3185 3186 3186 3187 3188 3189 3191 3192 3193 3194 3196 3197 3198 3199 3201 3202 3203 3204 3205 3206 3207 3207 3208 3209 3209 3210 3211 3212 3212 3213 3213
3141 3142 3141 3141 3142 3143 3144 3144 3145 3145 3146 3146 3146 3147 3148 3148 3150 3151 3152 3153 3154 3154 3155 3156 3157 3157 3158 3160 3162 3163 3164 3164 3164 3165 3166 3167 3170 3170 3171 3172 3172 3172 3173 3174 3174 3175 3175 3176 3177 3178 3180 3181 3182 3184 3185 3185 3186 3186 3187 3188 3189 3190 3191 3193 3194 3195 3196 3198 3199 3200 3201 3202 3204 3205 3205 3206 3207 3207 3208 3209 3210 3210 3211 3212 3212
3140 3140 3140 3140 3140 3141 3142 3143 3143 3144 3144 3144 3145 3145 3146 3147 3148 3149 3150 3151 3152 3153 3154 3154 3155 3155 3156 3158 3159 3161 3162 3162 3163 3164 3165 3167 3169 3169 3170 3171 3171 3171 3171 3172 3173 3173 3174 3175 3176 3177 3178 3180 3181 3182 3183 3184 3185 3186 3186 3187 3188 3189 3190 3191 3192 3193 3194 3195 3197 3198 3200 3201 3202 3203 3204 3205 3206 3206 3207 3207 3208 3209 3210 3210 3211
3139 3139 3139 3139 3139 3140 3141 3141 3142 3142 3142 3143 3143 3144 3145 3146 3147 3147 3148 3150 3150 3151 3152 3152 3153 3153 3154 3155 3156 3158 3160 3161 3161 3163 3165 3166 3167 3167 3168 3169 3169 3169 3170 3170 3171 3172 3173 3174 3174 3175 3177 3178 3179 3180 3182 3183 3184 3185 3185 3186 3187 3188 3189 3190 3190 3191 3192 3193 3195 3196 3197 3199 3200 3201 3202 3203 3204 3205 3205 3206 3207 3208 3208 3209 3209
3138 3138 3138 3137 3138 3138 3139 3139 3140 3141 3141 3141 3141 3142 3142 3143 3145 3145 3146 3147 3148 3149 3150 3151 3151 3152 3152 3152 3153 3155 3157 3158 3159 3160 3162 3164 3166 3166 3166 3167 3168 3167 3168 3168 3169 3170 3171 3172 3173 3174 3175 3176 3177 3178 3180 3181 3182 3183 3184 3184 3185 3186 3187 3188 3189 3190 3191 3192 3193 3194 3196 3197 3198 3199 3200 3201 3202 3203 3204 3205 3206 3206 3207 3208 3208
3137 3137 3136 3136 3136 3137 3137 3138 3138 3139 3139 3139 3140 3140 3140 3141 3142 3143 3143 3144 3145 3146 3147 3148 3149 3150 3151 3151 3150 3151 3153 3155 3156 3158 3159 3160 3163 3165 3164 3165 3165 3165 3166 3166 3167 3168 3169 3171 3172 3173 3173 3174 3175 3176 3178 3179 3181 3182 3182 3183 3184 3185 3186 3186 3187 3188 3189 3190 3191 3192 3194 3195 3196 3197 3198 3199 3200 3201 3202 3203 3204 3205 3206 3206 3207
3136 3136 3135 3135 3135 3135 3136 3136 3136 3136 3137 3137 3138 3138 3138 3139 3139 3140 3141 3142 3142 3143 3144 3144 3145 3147 3148 3149 3149 3150 3151 3152 3153 3155 3156 3157 3160 3162 3163 3163 3163 3163 3164 3164 3165 3166 3167 3169 3171 3172 3172 3173 3174 3175 3176 3177 3178 3180 3180 3181 3182 3183 3184 3185 3185 3186 3187 3188 3190 3191 3192 3193 3194 3195 3196 3197 3198 3199 3200 3201 3202 3203 3204 3205 3206
3135 3135 3134 3134 3134 3134 3134 3134 3134 3134 3135 3135 3135 3136 3136 3137 3137 3138 3139 3140 3140 3140 3141 3141 3142 3143 3144 3145 3147 3148 3149 3150 3151 3152 3154 3155 3157 3159 3160 3160 3161 3161 3162 3163 3164 3165 3166 3167 3169 3170 3171 3172 3173 3174 3175 3175 3176 3177 3178 3179 3180 3181 3182 3183 3184 3185 3185 3186 3187 3189 3190 3191 3192 3193 3194 3195 3196 3196 3198 3199 3200 3202 3203 3203 3204
3134 3134 3133 3133 3133 3132 3132 3132 3132 3132 3132 3133 3133 3134 3134 3135 3135 3136 3136 3137 3138 3138 3139 3139 3139 3140 3140 3141 3143 3145 3146 3148 3149 3150 3151 3152 3154 3156 3157 3158 3159 3159 3159 3160 3162 3163 3164 3165 3167 3168 3169 3171 3171 3172 3173 3173 3174 3176 3176 3177 3178 3179 3180 3181 3182 3182 3183 3184 3185 3187 3188 3189 3190 3191 3192 3193 3193 3194 3196 3197 3198 3200 3201 3202 3202
3133 3133 3132 3132 3132 3131 3131 3131 3131 3131 3131 3131 3131 3131 3132 3133 3133 3133 3134 3134 3135 3135 3136 3137 3136 3136 3137 3138 3139 3141 3142 3144 3146 3148 3148 3149 3151 3153 3155 3157 3157 3157 3157 3158 3160 3161 3162 3164 3165 3166 3167 3168 3169 3170 3171 3171 3172 3173 3174 3175 3176 3177 3177 3178 3179 3180 3182 3182 3183 3185 3186 3187 3188 3189 3190 3190 3191 3192 3194 3195 3196 3198 3199 3200 3200
3132 3132 3132 3131 3131 3130 3130 3130 3130 3129 3129 3129 3129 3129 3130 3130 3130 3130 3130 3131 3132 3132 3133 3133 3133 3133 3134 3135 3136 3137 3139 3140 3143 3144 3145 3147 3148 3150 3152 3154 3154 3155 3156 3157 3158 3160 3160 3162 3163 3165 3166 3166 3167 3168 3169 3170 3171 3172 3172 3173 3174 3175 3175 3175 3176 3178 3179 3180 3182 3183 3184 3185 3186 3187 3188 3188 3189 3190 3191 3193 3194 3196 3196 3197 3198
3130 3130 3130 3130 3130 3129 3129 3129 3128 3128 3128 3128 3127 3128 3128 3128 3128 3128 3127 3127 3128 3129 3130 3130 3130 3130 3131 3132 3133 3134 3135 3137 3139 3140 3142 3143 3145 3146 3148 3150 3150 3152 3154 3155 3156 3157 3158 3159 3161 3162 3163 3164 3165 3166 3167 3168 3169 3170 3171 3172 3172 3173 3173 3174 3174 3175 3176 3177 3179 3181 3181 3182 3183 3184 3185 3186 3187 3188 3189 3190 3192 3193 3194 3195 3196
3128 3129 3129 3129 3129 3128 3128 3127 3127 3127 3126 3126 3126 3126 3126 3126 3126 3125 3125 3124 3124 3125 3126 3127 3127 3128 3128 3129 3129 3131 3132 3134 3135 3136 3138 3139 3141 3143 3144 3146 3146 3148 3151 3152 3153 3153 3154 3156 3158 3159 3161 3161 3162 3164 3164 3165 3167 3168 3170 3170 3170 3170 3171 3172 3172 3172 3174 3175 3176 3177 3178 3179 3180 3182 3183 3184 3185 3186 3187 3188 3189 3191 3192 3193 3193
3127 3127 3127 3127 3127 3127 3127 3126 3126 3125 3125 3124 3124 3124 3124 3124 3124 3123 3123 3122 3121 3121 3122 3123 3124 3125 3126 3126 3126 3127 3129 3130 3131 3133 3134 3135 3137 3138 3140 3141 3143 3145 3147 3148 3149 3150 3151 3153 3153 3155 3157 3158 3159 3161 3161 3162 3164 3166 3167 3167 3168 3169 3169 3169 3170 3171 3172 3173 3173 3174 3175 3176 3178 3179 3180 3181 3182 3183 3184 3185 3187 3188 3190 3191 3191
3125 3125 3125 3126 3126 3125 3125 3125 3124 3124 3124 3124 3123 3123 3122 3122 3122 3121 3121 3120 3119 3119 3119 3119 3120 3121 3122 3123 3123 3124 3125 3126 3128 3129 3131 3132 3133 3134 3135 3136 3138 3140 3142 3144 3145 3146 3148 3149 3149 3151 3153 3154 3155 3157 3157 3158 3160 3162 3163 3165 3166 3167 3166 3167 3168 3170 3170 3169 3170 3171 3171 3173 3174 3176 3177 3178 3178 3179 3181 3183 3184 3185 3187 3188 3189
3123 3123 3123 3124 3124 3124 3124 3123 3123 3123 3122 3122 3121 3121 3121 3120 3120 3119 3119 3118 3118 3117 3116 3116 3116 3117 3118 3119 3120 3120 3121 3122 3124 3125 3127 3128 3129 3131 3131 3132 3134 3136 3138 3139 3141 3143 3144 3145 3146 3147 3149 3150 3152 3152 3153 3155 3157 3158 3159 3161 3163 3163 3165 3166 3166 3167 3166 3166 3167 3167 3168 3169 3170 3172 3173 3174 3174 3176 3178 3180 3181 3182 3184 3185 3186
3122 3122 3122 3122 3122 3122 3122 3122 3121 3121 3120 3120 3119 3119 3119 3119 3118 3117 3117 3116 3116 3115 3114 3113 3113 3113 3114 3115 3116 3117 3118 3119 3120 3121 3122 3124 3125 3127 3128 3129 3130 3131 3133 3135 3137 3139 3140 3142 3144 3145 3145 3146 3148 3148 3148 3151 3153 3155 3155 3157 3159 3160 3162 3164 3163 3164 3163 3163 3164 3164 3164 3166 3167 3168 3169 3170 3171 3173 3175 3176 3177 3179 3181 3182 3183
3120 3120 3120 3120 3120 3120 3120 3120 3120 3119 3119 3118 3117 3117 3117 3117 3116 3116 3115 3115 3114 3113 3113 3112 3111 3110 3111 3111 3112 3113 3114 3115 3116 3117 3118 3119 3121 3122 3123 3124 3126 3127 3128 3130 3132 3134 3136 3138 3140 3141 3141 3142 3144 3143 3144 3147 3148 3150 3152 3153 3155 3156 3159 3160 3161 3162 3161 3160 3161 3161 3162 3163 3163 3165 3166 3167 3168 3169 3171 3172 3174 3176 3177 3178 3179
3118 3118 3118 3118 3118 3118 3118 3118 3118 3117 3117 3116 3116 3115 3115 3115 3115 3114 3113 3113 3112 3111 3110 3110 3109 3108 3108 3108 3109 3109 3110 3110 3111 3113 3114 3115 3116 3117 3119 3120 3121 3123 3124 3125 3127 3130 3132 3133 3134 3136 3137 3138 3139 3139 3141 3143 3143 3146 3149 3149 3151 3152 3154 3156 3158 3159 3159 3159 3158 3157 3158 3159 3160 3161 3162 3163 3164 3165 3167 3169 3171 3172 3173 3174 3175
3116 3116 3117 3117 3116 3116 3116 3116 3116 3115 3115 3114 3113 3113 3113 3113 3112 3112 3111 3110 3110 3109 3108 3107 3107 3107 3106 3105 3105 3106 3106 3107 3107 3108 3109 3110 3111 3112 3114 3115 3117 3118 3119 3120 3122 3124 3126 3128 3130 3131 3132 3134 3136 3136 3137 3139 3139 3142 3145 3146 3147 3148 3150 3152 3153 3155 3156 3156 3156 3155 3154 3156 3157 3158 3159 3160 3161 3162 3164 3166 3167 3168 3169 3170 3171
3114 3115 3115 3115 3114 3114 3114 3114 3113 3113 3112 3112 3111 3110 3110 3110 3110 3109 3108 3108 3107 3107 3106 3105 3105 3104 3104 3103 3103 3102 3103 3103 3103 3104 3104 3105 3106 3107 3108 3110 3112 3113 3115 3116 3117 3119 3120 3123 3125 3127 3128 3129 3131 3131 3132 3134 3135 3137 3140 3142 3144 3144 3145 3148 3149 3151 3151 3152 3154 3153 3151 3152 3154 3155 3156 3158 3159 3160 3161 3162 3163 3164 3165 3166 3167
3112 3113 3113 3113 3112 3112 3112 3111 3111 3110 3110 3109 3109 3108 3108 3107 3107 3106 3106 3105 3105 3104 3103 3103 3102 3102 3101 3101 3100 3100 3100 3099 3100 3100 3100 3100 3101 3102 3103 3104 3106 3108 3109 3111 3112 3114 3115 3117 3119 3121 3123 3124 3125 3126 3127 3129 3130 3132 3134 3136 3139 3141 3142 3144 3146 3148 3149 3148 3150 3150 3149 3150 3151 3152 3153 3155 3156 3157 3158 3159 3160 3161 3161 3162 3164